This is the latest recevied weather packets stored in our database for station/object IZ1VWE-3. If no packets are shown the sender has not sent any weather packets the latest 10 day(s).
| Time | Temp. | Humidity | Pressure | Rain* | Wind** | Luminosity | Snow |
|---|---|---|---|---|---|---|---|
| 1777695061 | 11.67° C | 46% | 1023.5 hPa | - | - | - | - |
| 1777693861 | 11.67° C | 46% | 1023.5 hPa | - | - | - | - |
| 1777692660 | 11.11° C | 47% | 1023 hPa | - | - | - | - |
| 1777691460 | 10.56° C | 48% | 1023.4 hPa | - | - | - | - |
| 1777690260 | 11.67° C | 46% | 1023.4 hPa | - | - | - | - |
| 1777689059 | 11.11° C | 47% | 1023.4 hPa | - | - | - | - |
| 1777687859 | 11.11° C | 48% | 1023.1 hPa | - | - | - | - |
| 1777686659 | 11.67° C | 47% | 1023.5 hPa | - | - | - | - |
| 1777685458 | 12.22° C | 46% | 1023.1 hPa | - | - | - | - |
| 1777684258 | 12.22° C | 46% | 1023.4 hPa | - | - | - | - |
| 1777683058 | 12.22° C | 45% | 1023.4 hPa | - | - | - | - |
| 1777681857 | 12.22° C | 45% | 1023.4 hPa | - | - | - | - |
| 1777680657 | 12.22° C | 44% | 1023 hPa | - | - | - | - |
| 1777679457 | 13.33° C | 42% | 1023.3 hPa | - | - | - | - |
| 1777678257 | 14.44° C | 39% | 1023.3 hPa | - | - | - | - |
| 1777677062 | 15° C | 37% | 1022.9 hPa | - | - | - | - |
| 1777675856 | 15.56° C | 36% | 1023.1 hPa | - | - | - | - |
| 1777674656 | 15.56° C | 35% | 1022.7 hPa | - | - | - | - |
| 1777673455 | 15° C | 35% | 1022.3 hPa | - | - | - | - |
| 1777672255 | 15° C | 35% | 1022.6 hPa | - | - | - | - |
| 1777671054 | 15.56° C | 33% | 1022.7 hPa | - | - | - | - |
| 1777669854 | 15.56° C | 34% | 1022.6 hPa | - | - | - | - |
| 1777668654 | 15.56° C | 34% | 1022.6 hPa | - | - | - | - |
| 1777667454 | 15.56° C | 35% | 1022.1 hPa | - | - | - | - |
| 1777666253 | 15.56° C | 34% | 1021 hPa | - | - | - | - |
* Rain since midnight (hover to see other rain measurements)
** Current wind speed in m/s (hover to see current wind gust speed)